Regional Weather Roundup
Issued by NWS Jackson, KY

Home | Current Version | Previous Version | Text Only | Print | Product List | Glossary On
Versions: 1 2 3 4 5 6 7 8 9 10 11 12 13 14 15 16 17 18 19 20 21 22 23 24 25 26 27 28 29 30 31 32 33 34 35 36 37 38 39 40 41 42 43 44 45 46 47 48 49 50
000
ASUS43 KJKL 231910
RWRJKL

EAST KENTUCKY HOURLY WEATHER ROUNDUP
NATIONAL WEATHER SERVICE JACKSON KY
300 PM EDT MON OCT 23 2017

NOTE: "FAIR" INDICATES FEW OR NO CLOUDS BELOW 12,000 FEET WITH
NO SIGNIFICANT WEATHER AND/OR OBSTRUCTIONS TO VISIBILITY.

* THESE REPORTS ARE NOT UNDER NWS QUALITY CONTROL AND MAY NOT
  REPORT WEATHER SUCH AS PRECIPITATION AND FOG.

KYZ079-080-083-085-087-088-110-112-115-119-120-232000
...EASTERN KENTUCKY...

CITY           SKY/WX    TMP DP  RH WIND       PRES   REMARKS
JACKSON        RAIN      58  57  97 CALM      29.76F VSB 1/2
LONDON         CLOUDY    61  57  87 VRB3      29.75R
SOMERSET*      CLOUDY    61  59  94 S5        29.76F
MONTICELLO*    LGT RAIN  59  57  93 W23G37    29.79R FOG
WILLIAMSBURG*  CLOUDY    64  59  82 S6        29.75F
MIDDLESBORO*   CLOUDY    64  57  80 S6        29.78F
HARLAN APT*    CLOUDY    55  54  94 CALM      29.75F
PIKE CO APT*   HVY RAIN  56  56 100 W3        29.85F VSB 1/2
BIG SANDY APT* RAIN      58  58 100 CALM      29.87F
MOREHEAD APT*  LGT RAIN  59  57  94 VRB5      29.82F
$$

KYZ035-036-041-042-044-050-067-078-099-232000
...CENTRAL KENTUCKY...

CITY           SKY/WX    TMP DP  RH WIND       PRES   REMARKS
MT STERLING*   CLOUDY    59  55  88 SE12      29.74F
FLEMING/MASON* LGT RAIN  58  57  96 SE8       29.78F
DANVILLE*      CLOUDY    61  57  88 SW5       29.76R
LEXINGTON      CLOUDY    61  56  83 S9        29.74F
FRANKFORT      CLOUDY    61  56  83 S10       29.72R
LOUISVILLE     CLOUDY    60  56  86 SW12      29.73F
LEBANON*       MOCLDY    59  57  94 SW8       29.76R FOG
GLASGOW*       CLOUDY    57  55  94 W13       29.79F
BOWLING GREEN  CLOUDY    59  54  83 SW16G23   29.81F
$$

KYZ091>093-OHZ055-061-077-WVZ005-015-034-035-042-232000
...SOUTHERN OHIO/WEST VIRGINIA...

CITY           SKY/WX    TMP DP  RH WIND       PRES   REMARKS
COVINGTON      LGT RAIN  61  61 100 SE10      29.70F
COLUMBUS       CLOUDY    63  60  90 SW10      29.69F
DAYTON         LGT RAIN  62  61  96 S15       29.69S
WILMINGTON     LGT RAIN  61  60  97 S14       29.72F
HUNTINGTON     LGT RAIN  59  56  89 S9        29.84R
CHARLESTON     HVY RAIN  60  57  89 W14G35    29.85R FOG
PINEVILLE*       N/A     61  60  94 MISG      29.94R
BECKLEY        LGT RAIN  62  60  93 S8        29.85F FOG
BLUEFIELD      HVY RAIN  62  59  90 SW7       29.87F VSB 1
LOGAN CO APT*  HVY RAIN  57  55  94 W10G21    29.87F
$$

VAZ002-007-008-TNZ017-027-036-066-071-232000
...SOUTHWEST VIRGINIA/EAST TENNESSEE...

CITY           SKY/WX    TMP DP  RH WIND       PRES   REMARKS
WISE*          HVY RAIN  54  54 100 CALM      29.90R
JONESVILLE*      N/A     57  57 100 S7G16     29.81F
ABINGDON*      HVY RAIN  58  56  94 NW3       29.89R
BRISTOL        HVY RAIN  58  58 100 N7        29.85F FOG
MORRISTOWN*    PTCLDY    61  61 100 S5        29.79F
SEVIERVILLE*   MOCLDY    66  61  82 VRB5      29.80S
KNOXVILLE      PTSUNNY   66  64  93 SW13      29.77F
LAFOLLETTE*    MOCLDY    64  59  82 VRB7      29.81F
OAK RIDGE      PTSUNNY   66  63  90 S6        29.78F
CROSSVILLE     CLOUDY    56  54  93 W22G31    29.83S
NASHVILLE      LGT RAIN  58  53  84 W13G20    29.87S
$$

...KEY TO REMARKS...
VSB - VISIBILITY IN MILES
WCI - WIND CHILL INDEX
HX  - HEAT INDEX

$$



USA.gov is the U.S. government's official web portal to all federal, state and local government web resources and services.